Tracking 20626 objects as of 8-Apr-2020
HD Live streaming from Space Station
objects crossing your sky now

RSP-00

Track RSP-00 now!
10-day predictions
RSP-00 is classified as:


NORAD ID: 43639
Int'l Code: 1998-067PP
Perigee: 373.1 km
Apogee: 379.0 km
Inclination: 51.6 °
Period: 91.9 minutes
Semi major axis: 6747 km
RCS: Unknown
Launch date: November 20, 1998
Source: (TBD)
Launch site: TYURATAM MISSILE AND SPACE COMPLEX (TTMTR)

Uplink (MHz):
Downlink (MHz): 145.890/436.930
Beacon (MHz): 145.890
Mode: 1k2AFSK 38k4 pi/4QPSK CW
Call sign: 8J1RSP
Status: Inactive

aabbcc
Your satellite tracking list
Your tracking list is empty




NASA's NSSDC Master Catalog

Two Line Element Set (TLE):
1 43639U 98067PP  20099.56651087 +.00020412 +00000-0 +19665-3 0  9992
2 43639 051.6359 298.6383 0004391 141.9805 218.1501 15.66493969085830
Source of the keplerian elements: AFSPC